Regional Weather Roundup
Issued by NWS Albany, NY

Home | Current Version | Previous Version | Text Only | Print | Product List | Glossary On
Versions: 1 2 3 4 5 6 7 8 9 10 11 12 13 14 15 16 17 18 19 20 21 22 23 24 25 26 27 28 29 30 31 32 33 34 35 36 37 38 39 40 41 42 43 44 45 46 47 48 49 50
416
ASUS41 KALY 300310
RWRALY

NEW YORK STATE HOURLY WEATHER ROUNDUP
NATIONAL WEATHER SERVICE ALBANY NY
1100 PM EDT WED MAR 29 2017

NOTE: "FAIR" INDICATES FEW OR NO CLOUDS BELOW 12,000 FEET WITH NO
SIGNIFICANT WEATHER AND/OR NO OBSTRUCTIONS TO VISIBILITY.

NYZ032-033-038>043-046>054-057>066-NYZ062>081-082-084-300400-
EAST


CITY           SKY/WX    TMP DP  RH WIND       PRES   REMARKS
ALBANY         PTCLDY    37  20  50 NW12      30.25S WCI  29
GLENS FALLS    CLEAR     35  20  54 N7        30.24S WCI  29
POUGHKEEPSIE   CLEAR     39  21  48 N8        30.23S WCI  33
NEWBURGH       CLEAR     39  25  56 NE12      30.24R WCI  32
MONTGOMERY     PTCLDY    39  24  55 N6        30.22S WCI  35
WHITE PLAINS   CLEAR     41  21  44 N16G24    30.21R
ISLIP          PTCLDY    43  25  49 N15G23    30.20R
NEW YORK CITY  CLEAR     46  23  40 N17G26    30.23R
CENTRAL PARK   PTCLDY    44  23  43 NE16G23   30.25R
$$

NYZ005>009-017-018-044>046-055-056-300400-
CENTRAL


CITY           SKY/WX    TMP DP  RH WIND       PRES   REMARKS
FULTON         CLEAR     32  26  78 CALM      30.29F
SYRACUSE       PTCLDY    31  25  78 CALM      30.29F
ROME           CLEAR     28  24  85 N3        30.29F
ELMIRA         CLEAR     28  23  81 CALM      30.27F
BINGHAMTON     CLEAR     32  22  66 N10       30.23F WCI  24
MONTICELLO     CLEAR     34  21  60 NW3       30.22S
$$

NYZ026>034-041>043-087-300400-
NORTH


CITY           SKY/WX    TMP DP  RH WIND       PRES   REMARKS
WATERTOWN      CLEAR     29  22  75 NE6       30.30F WCI  23
FORT DRUM      NOT AVBL
MASSENA        CLOUDY    37  22  54 N5        30.33S WCI  33
SARANAC LAKE   CLOUDY    31  19  61 N9        30.22S WCI  23
PLATTSBURGH    CLOUDY    37  22  54 NW13      30.27S WCI  29
$$

NYZ001>004-010>016-019>021-085-300400-
WEST


CITY           SKY/WX    TMP DP  RH WIND       PRES   REMARKS
NIAGARA FALLS  CLOUDY    40  28  62 E6        30.26F
BUFFALO        CLOUDY    40  27  59 E9        30.25F WCI  34
DUNKIRK        CLOUDY    35  32  88 E3        30.25F
JAMESTOWN      CLOUDY    39  27  60 E5        30.20F
WELLSVILLE     CLEAR     35  24  64 E5        30.23F WCI  31
ROCHESTER      PTCLDY    39  26  59 CALM      30.29F
PENN YAN       CLEAR     34  25  69 CALM      30.28F
$$

             KEY
       WCI = WIND CHILL INDEX
       VSB = VISIBILITY
       HX  = HEAT INDEX
$$




USA.gov is the U.S. government's official web portal to all federal, state and local government web resources and services.